User: anonymous   Login
Location: Cronhütte
(48.9135°N, 9.6869°E)
Time: 21:50:58
(UTC+00:00)
Language:

Cosmos 2360 Rocket - Orbit

View from above orbital plane
View from above orbital plane
View from above satellite
View from above satellite

Ground track
Ground track

The orbit data is extracted from the following two-line orbital elements,

1 25407U 98045B   24197.60873064 -.00000115  00000-0 -34262-4 0  9991
2 25407  71.0120   7.5941 0009178 233.5034 126.5245 14.16013029341866
Epoch (UTC): 15 July 2024 14:36:34
Eccentricity: 0.0009178
inclination: 71.0120°
perigee height: 832 km
apogee height: 845 km
right ascension of ascending node: 7.5941°
argument of perigee: 233.5034°
revolutions per day: 14.16013029
mean anomaly at epoch: 126.5245°
orbit number at epoch: 34186

The dashed part of the orbit path shows where the satellite is in the earth's shadow,  

DLR